www.pogodaiklimat.ru

Погода и климат >> Архив погоды >> Туркменистан >> Дашогуз


ПОГОДА в Дашогузе

  • Прогноз погоды в Дашогузе
  • Монитор погоды в Дашогузе

АРХИВ ПОГОДЫ в Дашогузе

Время (UTC), дата Ветер
(напр.,м/с)
 
Видим.   Явления Облачность Т
(С)
Тd
(С)
f
(%)
Тe
(С)
Тes
(С)
Комфортность P
(гПа)
Po
(гПа)
Тmin
(С)
Tmax
(С)
R
(мм)
R24
(мм)
S
(см)
00 12.06 СВ 2 10 км ясно +20.4 +10.3 52 +23 +23 комфорт 1014.4 1004.6
03 12.06 С 3 10 км ясно +25.6 +8.9 35 +26 +30 жарко 1014.9 1005.3 +19.5
06 12.06 СВ 3 10 км ясно +31.5 +6.5 21 +30 +43 жарко 1014.2 1004.7 +19.5
09 12.06 ЮВ 4 10 км ясно +33.4 +6.1 18 +31 +44 жарко 1012.6 1003.3
12 12.06 Ю 3 10 км ясно +34.4 +6.5 18 +32 +39 жарко 1011.5 1002.2
15 12.06 ЮВ 3 10 км 3/0
[Ci sp]
+32.4 +6.4 20 +31 +31 жарко 1010.5 1001.2 +35.1
18 12.06 С 1 10 км ясно +28.3 +7.0 26 +28 +28 жарко 1010.8 1001.3 +35.1
21 12.06 нст 1 10 км ясно +25.3 +7.6 32 +25 +25 комфорт 1010.0 1000.4
00 13.06 СВ 3 10 км ясно +22.8 +10.0 44 +25 +25 комфорт 1009.6 999.9
03 13.06 СВ 3 10 км ясно +26.3 +9.2 34 +27 +30 жарко 1009.8 1000.3 +21.0
06 13.06 В 3 10 км 3/0
[Ac lent]
+33.5 +9.9 24 +33 +43 жарко 1009.4 1000.1 +21.0
09 13.06 В 6 10 км 3/0
[Ac lent]
+35.4 +7.6 18 +33 +39 жарко 1008.1 998.9
12 13.06 Ю 3 10 км 3/0
[Ac lent]
+36.1 +7.1 17 +34 +39 очень
жарко
1006.5 997.3
15 13.06 СВ 3 10 км 8/0
[Ac trans Ci sp]
+35.0 +7.4 18 +33 +33 жарко 1006.0 996.8 +36.7
18 13.06 С 2 10 км 8/0
[Ac trans]
+28.7 +10.6 32 +29 +29 жарко 1006.5 997.1 +36.7
21 13.06 СЗ 2 10 км 8/0
[Ac trans]
+25.0 +11.7 43 +26 +26 жарко 1005.6 996.1
00 14.06 нст 4 10 км 8/0
[Ac trans]
+24.2 +12.1 47 +26 +26 жарко 1005.2 995.7
03 14.06 штиль 0 10 км 8/0
[Ac trans]
+28.3 +11.0 34 +29 +32 жарко 1006.0 996.6 +22.0
06 14.06 З 5 10 км 6/0
[Ac trans Ci fib]
+35.5 +4.8 15 +33 +39 жарко 1006.2 997.0 +22.0
09 14.06 СЗ 4 10 км 6/4 1500 м
[Cu med, cong Ac cast]
+37.2 +4.6 13 +34 +40 очень
жарко
1005.0 995.8
12 14.06 СЗ 6 10 км 8/0
[Ac cast Ci fib]
+36.7 +3.0 12 +33 +35 жарко 1004.2 995.0
15 14.06 СЗ 4 10 км 8/0
[Ac lent Ci fib]
+34.5 +5.8 17 +32 +32 жарко 1003.9 994.7 +38.1
18 14.06 СЗ 3 10 км 8/0
[Ac trans]
+28.7 +8.8 29 +28 +28 жарко 1005.6 996.2 +38.1
21 14.06 С 6 10 км 8/0
[Ac trans]
+25.9 +10.9 39 +27 +27 жарко 1006.4 996.9
00 15.06 С 4 10 км 4/0
[Ac trans]
+21.1 +7.6 42 +22 +22 комфорт 1007.6 997.9
03 15.06 СЗ 4 10 км ясно +22.4 +9.4 44 +24 +27 комфорт 1009.1 999.5 +19.9
06 15.06 СЗ 3 10 км ясно +28.8 +8.9 29 +29 +42 жарко 1009.9 1000.4 +19.9
09 15.06 СЗ 6 10 км ясно +31.5 +8.0 23 +30 +38 жарко 1009.5 1000.1
12 15.06 СЗ 7 10 км ясно +32.2 +2.5 15 +29 +32 жарко 1008.9 999.5
15 15.06 СЗ 5 10 км ясно +30.4 +0.4 14 +27 +28 жарко 1009.1 999.7 +32.6
18 15.06 СЗ 3 10 км ясно +25.7 +4.1 25 +25 +25 комфорт 1009.9 1000.3 +32.6
21 15.06 С 3 10 км ясно +20.8 +4.3 34 +22 +22 комфорт 1010.4 1000.7
00 16.06 С 3 10 км ясно +18.2 +4.6 41 +18 +18 1011.2 1001.4
03 16.06 В 3 10 км ясно +22.7 +5.9 34 +23 +27 комфорт 1012.6 1002.9 +18.1
06 16.06 ЮВ 4 10 км ясно +27.5 +4.0 22 +26 +37 жарко 1012.5 1003.0 +18.1
09 16.06 ЮВ 3 10 км ясно +30.1 +4.1 19 +28 +44 жарко 1011.7 1002.3
12 16.06 Ю 2 10 км ясно +31.2 +5.8 20 +29 +38 жарко 1010.4 1001.0
15 16.06 ЮВ 3 10 км ясно +30.4 +5.8 21 +29 +29 жарко 1009.9 1000.5 +31.9
18 16.06 В 3 10 км ясно +26.2 +6.2 28 +26 +26 жарко 1009.9 1000.4 +31.9
21 16.06 В 3 10 км ясно +23.4 +8.1 38 +25 +25 комфорт 1009.4 999.7
00 17.06 В 3 10 км ясно +20.4 +10.3 52 +22 +22 комфорт 1008.5 998.8
03 17.06 Ю 3 10 км ясно +24.5 +8.2 35 +25 +28 комфорт 1009.4 999.8 +19.6
06 17.06 Ю 4 10 км ясно +31.8 +3.8 17 +29 +40 жарко 1008.9 999.5 +19.6
09 17.06 СВ 3 10 км ясно +34.6 +4.5 15 +32 +48 жарко 1007.8 998.5
12 17.06 СВ 3 10 км 4/0
[Ac trans]
+35.2 +7.4 18 +33 +38 жарко 1006.4 997.2
15 17.06 СВ 4 10 км 4/0
[Ac trans]
+33.4 +8.5 22 +32 +32 жарко 1006.7 997.4 +35.8
18 17.06 Ю 2 10 км 6/0
[Ac trans]
+28.5 +10.0 32 +29 +29 жарко 1006.5 997.1 +35.8
21 17.06 В 4 10 км 4/0
[Ac trans]
+26.2 +9.5 35 +27 +27 жарко 1006.4 996.9
00 18.06 В 4 10 км 4/0
[Ac trans]
+23.4 +10.2 43 +25 +25 комфорт 1006.9 997.3
03 18.06 В 7 10 км 8/0
[Ac trans]
+27.5 +7.7 29 +27 +28 жарко 1008.3 998.8 +23.3
06 18.06 ЮВ 4 10 км 10/0
[Ac trans Ci sp]
+30.0 +9.0 27 +29 +36 жарко 1008.0 998.6 +23.3
09 18.06 ЮВ 4 10 км 10/0
[Ac As]
+33.8 +10.2 24 +33 +37 жарко 1007.1 997.9
12 18.06 В 7 10 км 10/0
[Ac As]
+33.8 +8.1 21 +32 +33 жарко 1005.8 996.6
15 18.06 С 4 10 км 10/0
[As op]
+31.8 +9.4 25 +31 +31 жарко 1006.1 996.8 +34.2
18 18.06 СВ 3 10 км 10/0
[Ac As]
+29.5 +10.2 30 +30 +30 жарко 1006.8 997.4 +34.2
21 18.06 ЮВ 3 10 км 10/0
[Ac As]
+26.5 +10.7 37 +27 +27 жарко 1006.5 997.0

 

Местоположение метеостанции Дашогуз (Дашогузский велаят, Туркменистан): широта 41.75 долгота 59.82 высота над уровнем моря 82 м.

В архиве по умолчанию представлена погода в Дашогузе за последнюю неделю. Архивные данные за месяц целиком и за предыдущие месяцы, начиная с января 2011 года, Вы можете получить, выбрав интересующий диапазон дат из раскрывающегося списка и нажав кнопку "Ввод!".


*Определитесь, кто Вы:
робот инопланетянин человек

Внимание! Время в таблицах - всемирное. Для получения местного времени необходимо прибавить поправку, которая равна 5 ч.

Смотрите также архив погоды в соседних городах и на ближайших метеорологических станциях:

Погода в Гурлене (Хорезмская область, Узбекистан) (49 км)
Погода в Хиве (Хорезмская область, Узбекистан) (61 км)
Погода в Ургенче (Хорезмская область, Узбекистан) (65 км)
Погода в Тахиаташе (Каракалпакстан, Узбекистан) (75 км)
Погода в Нукусе (Каракалпакстан, Узбекистан) (80 км)
Погода в Тахтакупыре (Каракалпакстан, Узбекистан) (83 км)
Погода в Кенеургенче (Дашогузский велаят, Туркменистан) (84 км)
Погода в Шах-Сенеме (Дашогузский велаят, Туркменистан) (93 км)
Погода в Чимбае (Каракалпакстан, Узбекистан) (133 км)
Погода в Тюя-Муюне (Лебапский велаят, Туркменистан) (144 км)

Пояснения к столбцам:

Ветер - указаны скорость ветра в м/с - средняя за 10 мин, порывы в срок и между сроками (в фигурных скобках) и направление, откуда дует ветер: С - северный, СВ - северо-восточный, В - восточный, ЮВ - юго-восточный, Ю - южный, ЮЗ - юго-западный, З - западный, СЗ - северо-западный.
Видимость - горизонтальная дальность видимости в метрах или километрах. При видимости от 1 до 10 км при отсутствии осадков обычно наблюдается дымка, при ухудшении видимости до 1 км и менее - туман. В сухую погоду видимость может ухудшаться дымом, пылью или мглою.
Явления - указаны атмосферные явления, наблюдавшиеся в срок или в последний час перед сроком; фигурными скобками обозначены явления, наблюдавшиеся между сроками (за 1-3 часа до срока); квадратными скобками обозначены град или гололедные отложения с указанием их диаметра в мм.
Облачность - указаны через наклонную черту общая и нижняя облачность в баллах и высота нижней границы облаков в метрах; квадратными скобками обозначены формы облаков: Ci - перистые, Cs - перисто-слоистые, Cc - перисто-кучевые, Ac - высококучевые, As - высокослоистые, Sc - слоисто-кучевые, Ns - слоисто-дождевые, Cu - кучевые, Cb - кучево-дождевые. Подробнее классификацию облаков см. в Атласе облаков (PDF).
T - Температура воздуха - температура, измеренная на высоте 2 м над землей.
Td - Температура точки росы - температура, при понижении до которой содержащийся в воздухе водяной пар достигнет насыщения.
f - Относительная влажность воздуха - влажноcть воздуха, измеренная на высоте 2 м над землей.
Te - Эффективная температура - температура, которую ощущает одетый по сезону человек в тени. Характеристика душности погоды. При расчете учитывается влияние влажности воздуха и скорости ветра на теплоощущения человека.
Tes - Эффективная температура на солнце - температура, которую ощущает человек, с поправкой на солнечный нагрев. Характеристика знойности погоды. Зависит от высоты солнца над горизонтом, облачности и скорости ветра. Ночью, в пасмурную погоду, а также при ветре 12 м/с и более поправка равна нулю.
P - Атмосферное давление - приведенное к уровню моря атмосферное давление.
Po - Атмосферное давление - измеренное на уровне метеостанции атмосферное давление.
Tmin - Минимальная температура - минимум температуры воздуха на высоте 2 м над землей.
Tmax - Максимальная температура - максимум температуры воздуха на высоте 2 м над землей.
R - Количество осадков - Количество выпавших осадков за период времени, мм. При наведении курсора мыши на число - период времени, за который выпало указанное количество осадков.
R24 - Количество осадков - Количество выпавших осадков за 24 часа, мм.
S - Снежный покров - Высота снежного покрова, см. При наведении курсора мыши на число - состояние снежного покрова и степень покрытия местности в баллах.